Presure
206 218 207 174 210 210 202 210 168 182 153 196 207 203 139 150 122 188 133 196 124 185 195 139 146 161 116 157 196 193 215 209 218 224 228 228 141 254 257 328 329 328 330 331
203 203 205 200 190 195 194 189 204 213 177 206 207 207 208 189 138 150 203 132 198 190 144 160 192 188 147 169 196 186 200 211 219 223 221 233 217 213 248 260 263 328 335 328
181 206 199 186 196 188 201 191 179 204 166 177 196 199 182 199 184 204 140 195 130 187 192 160 182 189 194 157 181 189 191 203 148 210 217 217 217 229 221 235 250 254 268 327
210 173 197 178 165 200 187 178 194 190 235 190 197 198 195 188 186 189 133 205 201 197 203 197 188 199 189 192 182 186 134 192 188 207 172 208 187 216 219 198 218 229 246 226
203 191 193 218 193 202 198 185 189 184 221 162 206 219 223 195 182 200 131 199 175 202 206 200 185 132 193 184 194 194 205 193 192 191 204 192 195 171 208 202 219 218 216 232
184 195 187 198 180 211 220 218 191 205 199 171 183 173 180 196 190 203 199 185 198 206 154 209 204 204 178 185 167 168 185 189 171 195 194 203 190 189 187 139 209 207 212 221
205 205 205 211 211 211 174 192 174 199 196 194 215 220 190 225 182 186 213 139 199 178 188 207 202 192 199 193 193 191 184 185 184 190 185 176 196 202 198 181 196 190 180 212
191 219 203 207 222 211 209 210 222 194 226 227 205 153 191 176 200 191 215 213 188 184 192 201 171 196 197 200 142 191 189 186 191 205 181 179 197 186 150 179 200 199 207 190
236 229 219 215 227 230 218 204 236 225 230 212 205 221 190 221 198 220 222 209 200 202 199 195 197 198 196 199 193 193 200 184 187 194 178 180 185 191 179 173 201 179 192 198
237 252 248 183 173 152 218 239 224 227 186 243 217 193 229 211 214 186 220 179 226 219 205 198 196 178 184 195 199 199 193 188 188 193 194 173 185 187 188 193 185 185 198 178
263 253 253 255 262 259 165 243 250 249 243 234 238 230 201 232 220 190 181 202 220 190 198 194 204 184 184 187 177 187 204 202 202 194 190 183 177 188 177 185 191 186 183 196
298 308 311 302 316 337 202 274 268 227 262 254 138 140 229 211 210 209 192 226 194 176 197 196 188 200 196 191 195 196 197 198 195 193 191 185 189 186 191 195 190 179 193 197
286 288 288 287 282 292 289 302 346 311 146 282 199 241 270 248 220 212 175 241 192 175 220 220 176 210 189 192 193 193 197 198 196 196 193 198 199 195 191 190 194 199 198 190
321 334 336 329 325 345 340 333 354 342 358 344 294 277 272 278 260 239 238 209 229 209 227 209 198 201 198 187 191 187 190 199 185 190 195 180 197 197 195 190 191 192 194 196
283 276 309 323 294 290 287 309 300 331 257 346 171 358 286 276 281 193 204 238 241 225 232 201 191 202 202 195 206 186 191 189 185 184 190 199 195 194 195 192 195 200 198 199
375 424 427 427 425 423 426 429 458 472 478 441 325 342 93 310 297 293 261 241 239 243 228 203 235 193 236 203 168 172 186 178 180 197 199 201 176 190 194 203 209 196 186 190
419 406 402 426 431 427 422 157 80 110 429 447 483 356 331 324 309 176 150 179 241 244 231 191 222 234 229 209 182 203 191 190 194 198 200 206 202 197 180 196 199 202 209 192
403 422 407 389 373 375 385 381 237 191 404 158 452 510 419 299 277 247 282 268 251 242 246 240 229 182 236 207 183 210 203 203 188 192 200 206 204 208 208 193 204 197 204 210
400 380 347 341 345 350 141 70 287 263 360 378 412 460 530 295 289 316 299 286 257 246 242 233 213 228 240 186 200 208 222 205 201 183 185 198 210 201 208 193 216 202 208 197
345 328 323 329 334 310 343 340 327 366 94 95 390 194 447 471 295 328 294 297 288 254 242 162 239 235 225 227 224 232 220 216 206 205 201 190 218 210 213 188 210 204 198 194
326 334 326 329 335 340 338 331 327 351 332 299 175 313 325 121 417 311 319 302 292 277 251 242 239 240 229 223 224 222 233 215 236 215 202 235 196 207 210 209 208 199 205 199
300 314 339 308 356 338 339 338 336 411 442 354 235 334 379 425 505 309 307 293 315 279 273 227 170 237 237 230 228 229 226 232 234 233 222 239 200 181 220 223 211 198 200 211
296 289 297 327 335 344 339 337 349 334 336 328 331 354 404 541 431 383 300 299 312 324 278 266 171 242 240 233 233 230 231 229 230 232 234 229 211 216 239 228 227 226 204 213
287 329 281 382 471 328 331 330 337 324 320 321 344 380 389 421 395 355 337 293 300 329 306 278 263 253 244 264 256 233 231 231 231 231 233 236 238 239 226 224 240 247 244 242
309 284 314 319 326 346 406 353 379 314 323 307 329 381 355 338 348 373 375 287 293 313 309 287 270 260 256 257 246 235 234 232 231 232 233 240 240 239 240 243 241 242 246 237
281 304 309 303 308 324 331 316 303 298 304 308 306 314 337 334 326 336 362 289 286 297 301 285 264 255 257 256 255 257 254 247 243 240 239 239 240 236 244 249 247 248 248 246
301 288 296 287 299 297 331 293 293 289 303 305 323 302 301 317 323 335 325 270 275 276 287 287 281 267 259 258 248 248 255 255 250 244 241 241 242 244 239 243 239 244 251 251
Wind_Speed
58 58 62 63 60 59 60 56 55 53 52 60 55 56 40 49 42 52 36 56 35 44 48 27 27 35 24 20 34 34 47 42 46 45 45 45 14 51 47 15 6 4 10 18
60 60 60 58 64 65 65 58 58 58 58 57 60 56 55 55 41 45 52 38 52 51 36 39 39 34 21 20 35 24 36 41 44 43 41 45 33 29 47 45 46 11 4 6
65 67 67 67 69 71 69 67 61 61 56 66 59 60 61 58 54 55 40 53 43 52 50 39 39 33 37 24 19 23 32 33 20 36 38 37 33 39 31 39 41 37 43 11
67 70 69 70 67 70 71 67 67 65 61 65 61 61 60 60 58 56 49 54 52 52 52 50 42 45 41 31 22 18 28 24 21 31 16 31 4 31 29 11 23 31 32 15
78 79 78 79 80 74 77 74 68 73 57 62 63 58 62 65 60 60 52 55 55 55 51 51 43 42 40 32 33 31 31 22 20 23 24 16 15 20 22 12 26 23 18 25
83 85 84 84 78 82 77 79 72 76 70 65 69 65 68 69 69 64 62 60 58 58 51 50 50 48 43 36 36 25 20 21 29 23 20 20 16 15 12 29 19 14 15 19
97 97 92 97 96 91 75 75 77 81 73 73 69 65 79 62 70 67 65 53 60 57 55 53 49 47 48 42 40 36 36 25 19 17 25 18 18 17 13 12 10 15 17 15
97 112 94 98 106 97 96 93 97 82 85 81 68 64 74 66 80 69 67 67 63 62 63 58 45 50 49 49 42 42 37 29 32 34 19 24 15 18 28 27 17 14 16 15
120 118 111 108 115 115 106 93 109 98 92 79 78 82 80 74 80 71 63 73 71 70 67 62 57 55 55 53 49 48 48 36 40 35 29 31 21 19 28 35 26 31 17 18
120 117 118 85 82 71 101 115 112 109 76 95 84 76 87 84 81 77 69 71 74 73 69 64 64 51 51 55 57 59 50 44 43 40 38 43 36 27 25 30 31 29 29 37
122 119 120 119 119 118 74 113 117 118 116 99 95 93 75 85 83 84 81 76 72 65 69 70 70 63 59 56 47 52 59 55 53 45 42 42 44 42 41 34 34 34 37 35
113 112 112 114 113 116 93 116 119 101 124 107 60 63 91 83 91 87 88 81 83 64 78 74 70 73 69 66 69 68 65 59 56 53 49 45 49 48 48 45 43 42 43 44
113 114 117 117 116 116 117 117 111 117 55 114 85 94 99 98 93 99 72 91 87 66 82 84 53 78 66 70 72 70 71 69 62 63 59 57 56 54 53 51 50 54 54 49
101 101 104 106 109 109 112 114 109 117 116 116 105 106 105 101 98 100 101 87 95 85 85 83 78 73 77 64 71 65 69 75 59 63 67 42 61 58 57 54 56 55 57 56
107 105 96 94 108 107 108 106 110 114 82 117 34 100 108 106 99 75 91 102 101 97 93 85 77 73 74 76 80 62 76 73 66 59 64 74 63 50 58 55 62 67 63 63
74 62 60 58 58 61 67 73 69 65 67 83 92 94 36 111 111 103 102 103 103 101 98 84 85 78 86 80 48 56 71 63 61 81 81 81 36 56 62 74 75 64 49 56
52 52 52 46 44 49 55 31 18 36 53 71 70 95 94 101 108 80 69 73 103 103 97 69 90 85 83 75 58 82 80 80 84 85 83 86 81 74 44 71 72 75 79 59
43 35 31 32 40 49 53 36 29 22 46 35 65 66 78 95 96 96 106 100 105 108 104 100 97 74 88 83 68 86 90 92 76 74 81 88 86 89 87 69 83 75 84 87
29 28 26 29 42 46 29 9 38 40 57 59 56 52 57 91 95 104 111 110 105 107 104 96 90 94 89 67 85 88 90 94 91 54 55 79 95 81 90 71 93 86 89 74
22 30 38 44 46 37 40 44 48 49 23 28 54 12 46 41 96 98 103 111 109 105 104 72 99 94 87 88 87 89 90 97 98 95 89 67 98 94 95 64 93 89 77 71
25 26 36 37 30 41 44 43 46 45 52 43 20 27 26 4 61 95 97 103 111 103 103 103 100 93 90 91 92 93 97 93 98 100 91 93 80 91 95 95 93 80 88 81
34 37 29 32 36 42 44 35 29 26 42 19 14 20 28 29 37 92 96 98 102 105 99 92 62 91 97 96 96 98 97 98 97 97 94 94 85 75 103 102 94 77 82 94
30 33 31 30 35 39 35 24 7 9 13 17 13 14 17 39 43 48 93 96 96 94 104 100 69 96 98 98 102 101 100 98 97 98 99 96 92 91 101 103 102 100 88 99
26 6 24 18 12 21 25 21 18 17 15 13 6 19 16 41 55 61 76 87 85 80 93 99 98 100 99 103 105 103 101 101 100 99 101 102 104 103 96 92 102 104 106 106
14 23 21 20 12 9 5 11 18 15 25 15 9 15 35 30 37 45 55 77 78 72 77 91 96 99 101 101 104 103 103 102 101 100 100 106 105 103 102 104 103 104 107 98
20 24 32 23 26 20 21 30 23 17 14 19 19 14 20 35 34 34 35 66 65 66 72 86 92 94 97 99 101 102 106 108 107 106 108 107 106 99 103 106 106 107 107 106
29 25 27 23 24 27 18 22 21 17 18 17 16 24 23 21 20 24 41 65 65 68 73 80 87 94 96 98 100 102 102 105 108 107 106 105 104 104 99 100 96 101 109 109
Wind_Direction
271 270 267 271 270 270 276 275 275 274 277 282 282 282 264 286 275 295 268 301 277 307 313 289 298 312 273 322 359 3 12 17 20 26 32 38 263 46 49 45 60 137 200 203
268 268 269 268 277 275 275 274 276 271 278 278 280 279 280 281 264 271 290 264 297 302 280 295 316 322 288 321 349 343 1 13 15 20 27 32 39 42 45 50 52 59 150 168
273 271 270 275 273 277 270 276 275 274 263 277 281 282 280 282 277 286 252 289 264 294 295 285 302 308 318 283 326 350 351 7 286 15 20 26 30 36 43 45 50 57 58 94
272 268 271 271 272 266 271 270 273 275 277 278 275 273 278 280 280 285 249 284 284 288 289 292 297 302 301 311 305 323 271 348 340 6 325 13 260 24 31 25 43 48 55 72
270 268 267 277 264 272 267 268 268 271 274 270 269 275 266 275 278 278 261 279 282 285 283 284 288 268 297 287 306 314 324 335 344 344 0 341 354 250 15 8 33 37 44 44
270 276 273 277 271 273 275 275 270 267 266 275 274 276 277 271 279 274 275 283 279 277 270 283 281 284 284 286 282 280 292 312 287 333 335 350 321 344 322 260 15 10 19 28
278 274 274 276 277 274 269 267 268 271 273 258 270 270 267 268 275 278 264 270 272 279 282 275 277 280 281 282 287 289 286 283 283 305 299 290 332 341 334 308 325 269 273 6
270 273 273 274 273 272 271 273 273 265 270 269 266 269 270 275 263 270 261 261 273 276 277 275 275 276 277 278 274 280 280 276 292 300 263 280 305 278 276 272 311 323 333 275
271 271 272 272 272 271 271 268 270 269 268 268 263 265 261 267 258 262 259 256 264 263 266 271 270 271 277 276 276 277 280 272 281 288 256 264 250 282 262 270 304 268 287 297
270 267 265 262 265 265 267 267 270 271 259 264 261 258 265 262 257 264 258 264 253 253 260 265 267 277 279 276 274 273 273 275 276 281 283 261 276 264 269 284 267 264 293 264
267 267 267 267 266 263 257 264 263 263 263 261 258 258 253 258 261 260 266 260 258 262 263 263 255 269 276 271 277 277 273 273 275 276 275 274 267 281 264 268 283 262 258 285
270 268 267 266 264 263 262 261 259 260 260 259 262 265 254 257 260 257 254 260 257 263 259 258 264 258 263 271 269 272 274 275 274 274 273 269 277 277 281 283 280 264 285 290
269 267 265 265 267 264 264 261 259 257 256 253 254 257 249 247 253 257 259 253 253 262 246 246 267 253 267 265 266 270 271 272 274 275 276 276 276 277 281 283 288 290 289 284
272 271 268 266 265 263 262 262 258 255 254 253 247 249 251 246 242 245 249 252 251 251 246 250 257 255 256 261 264 273 276 272 268 277 277 275 277 279 283 282 286 287 289 288
274 275 274 272 268 266 265 263 259 253 254 253 233 243 245 246 242 248 251 244 245 248 249 250 259 247 247 259 254 271 266 272 275 277 279 276 281 285 283 287 287 286 286 286
277 274 272 270 267 264 262 260 258 261 262 258 246 239 221 237 240 238 232 239 242 243 247 250 246 258 243 252 259 271 269 270 272 269 272 276 263 283 281 283 279 285 281 286
273 271 270 268 266 263 264 259 271 0 260 259 257 237 231 231 233 248 258 251 240 240 242 246 248 245 243 247 265 251 262 265 266 267 271 272 276 279 271 284 284 284 281 282
274 266 263 260 260 259 261 268 258 264 253 276 256 254 237 232 232 238 234 229 232 238 238 240 245 248 244 248 263 248 252 254 267 271 271 271 273 273 273 282 279 284 286 283
255 257 249 250 253 253 254 250 259 256 253 256 259 257 255 228 232 229 231 232 228 234 238 238 243 245 245 247 250 249 247 253 258 269 275 274 268 272 273 280 275 282 282 290
238 239 246 246 255 272 262 258 263 256 284 285 250 100 245 248 223 225 228 231 230 229 235 246 239 243 246 248 250 250 250 251 259 261 266 277 263 269 269 279 275 279 287 292
247 246 258 266 258 240 245 245 254 266 247 246 255 258 254 193 225 221 222 227 231 229 230 235 238 240 244 248 249 251 250 254 255 256 266 261 276 273 271 272 275 284 285 290
262 264 284 282 220 230 235 246 267 285 245 267 249 254 251 238 222 219 221 224 227 231 230 235 245 239 242 246 249 251 254 255 257 257 261 262 272 270 269 269 275 284 287 286
252 272 282 260 234 225 237 254 220 232 230 230 237 251 238 222 183 206 219 223 224 226 230 233 242 238 241 244 247 250 253 257 259 260 261 263 267 271 268 270 271 273 286 286
266 121 282 37 294 234 245 258 205 191 207 223 189 221 216 205 196 206 215 221 224 226 228 231 235 239 241 244 243 248 252 256 259 262 263 265 266 268 271 275 274 276 278 282
149 266 118 103 96 104 194 201 205 150 128 160 127 166 164 192 195 205 212 219 222 222 226 229 232 236 240 242 244 248 251 254 258 261 263 264 266 269 272 273 277 279 280 283
243 148 118 124 106 79 144 136 145 141 154 159 167 168 166 191 206 211 227 214 217 221 223 227 231 235 238 241 243 246 248 251 255 258 261 265 267 272 273 273 276 278 281 285
195 186 159 172 124 115 105 154 169 175 166 176 177 175 181 189 204 223 215 213 214 219 222 225 229 233 237 240 244 247 249 251 253 257 261 265 268 271 275 277 282 283 283 286